TimeEST,TemperatureF,Dew PointF,Humidity,Sea Level PressureIn,VisibilityMPH,Wind Direction,Wind SpeedMPH,Gust SpeedMPH,PrecipitationIn,Events,Conditions,WindDirDegrees,DateUTC
12:53 AM,39.9,28.0,63,29.65,10.0,West,8.1,-,N/A,,Clear,260,2013-02-20 05:53:00
1:53 AM,37.9,25.0,60,29.66,10.0,West,8.1,-,N/A,,Clear,270,2013-02-20 06:53:00
2:53 AM,37.9,23.0,55,29.67,10.0,West,9.2,-,N/A,,Mostly Cloudy,280,2013-02-20 07:53:00
3:53 AM,37.0,19.9,50,29.68,10.0,West,10.4,17.3,N/A,,Overcast,280,2013-02-20 08:53:00
4:53 AM,36.0,19.9,52,29.69,10.0,West,8.1,16.1,N/A,,Overcast,280,2013-02-20 09:53:00
5:53 AM,34.0,19.9,56,29.71,10.0,WNW,6.9,-,N/A,,Clear,290,2013-02-20 10:53:00
6:53 AM,34.0,19.9,56,29.74,10.0,WNW,8.1,17.3,N/A,,Scattered Clouds,290,2013-02-20 11:53:00
7:53 AM,33.1,17.1,52,29.77,10.0,WNW,11.5,21.9,N/A,,Mostly Cloudy,290,2013-02-20 12:53:00
8:53 AM,33.1,14.0,46,29.78,10.0,WNW,15.0,29.9,N/A,,Overcast,300,2013-02-20 13:53:00
9:53 AM,34.0,14.0,44,29.78,10.0,WNW,10.4,20.7,N/A,,Mostly Cloudy,290,2013-02-20 14:53:00
10:53 AM,33.1,14.0,46,29.79,10.0,WNW,13.8,23.0,N/A,,Mostly Cloudy,290,2013-02-20 15:53:00
11:53 AM,33.1,14.0,46,29.78,10.0,WNW,10.4,21.9,N/A,,Mostly Cloudy,290,2013-02-20 16:53:00
12:53 PM,33.1,10.9,40,29.77,10.0,WNW,9.2,23.0,N/A,,Mostly Cloudy,300,2013-02-20 17:53:00
1:53 PM,33.1,12.0,42,29.78,10.0,WNW,12.7,26.5,N/A,,Overcast,300,2013-02-20 18:53:00
2:53 PM,33.1,10.9,40,29.78,10.0,West,12.7,24.2,N/A,,Overcast,280,2013-02-20 19:53:00
3:53 PM,33.1,12.0,42,29.80,10.0,West,13.8,27.6,N/A,,Mostly Cloudy,280,2013-02-20 20:53:00
4:53 PM,32.0,10.0,40,29.81,10.0,West,16.1,25.3,N/A,,Mostly Cloudy,280,2013-02-20 21:53:00
5:53 PM,30.9,12.0,46,29.83,10.0,NW,11.5,27.6,N/A,,Scattered Clouds,310,2013-02-20 22:53:00
6:53 PM,30.0,10.0,43,29.86,10.0,WNW,10.4,20.7,N/A,,Partly Cloudy,300,2013-02-20 23:53:00
7:53 PM,28.9,10.0,45,29.88,10.0,WNW,13.8,21.9,N/A,,Clear,300,2013-02-21 00:53:00
8:53 PM,28.0,10.9,49,29.88,10.0,WNW,11.5,20.7,N/A,,Clear,290,2013-02-21 01:53:00
9:53 PM,28.0,10.0,47,29.89,10.0,WNW,8.1,-,N/A,,Clear,290,2013-02-21 02:53:00
11:53 PM,27.0,10.9,51,29.92,10.0,WNW,9.2,16.1,N/A,,Clear,300,2013-02-21 04:53:00